KNCWAYNE6 Weather Reports


time (UTC)temp
C
wind
direction
speed
KPH
gust
KPH
rain 1hr
cm
rain 24hr
cm
rain mn
cm
humidity
%
barometer
mb
20260509003021 16 138 0.0 6.4 0.00 0.00 0.00 49 1016.3
20260509001518 16 84 1.6 6.4 0.00 0.00 0.00 47 1016.2
20260509000020 17 17 1.6 9.7 0.00 0.00 0.00 44 1016.1
20260508234512 17 173 1.6 19.3 0.00 0.00 0.00 43 1016.0
20260508233017 17 202 1.6 14.5 0.00 0.00 0.00 41 1015.9
20260508231520 18 173 1.6 9.7 0.00 0.00 0.00 39 1015.8
20260508230008 18 80 0.0 9.7 0.00 0.00 0.00 33 1015.7
20260508224512 18 19 3.2 12.9 0.00 0.00 0.00 32 1015.7
20260508223013 19 182 3.2 9.7 0.00 0.00 0.00 31 1015.6
20260508221520 20 43 3.2 12.9 0.00 0.00 0.00 32 1015.6
20260508220004 20 48 3.2 22.5 0.00 0.00 0.00 29 1015.6
20260508214509 20 265 3.2 19.3 0.00 0.00 0.00 27 1015.5
20260508213016 21 34 4.8 22.5 0.00 0.00 0.00 28 1015.6
20260508211520 20 306 6.4 14.5 0.00 0.00 0.00 27 1015.5
20260508210021 20 335 8.0 17.7 0.00 0.00 0.00 28 1015.5
20260508204506 20 32 3.2 11.3 0.00 0.00 0.00 26 1015.7
20260508203014 20 192 3.2 17.7 0.00 0.00 0.00 25 1015.7
20260508201514 20 42 1.6 19.3 0.00 0.00 0.00 26 1015.8
20260508200022 20 24 3.2 19.3 0.00 0.00 0.00 26 1015.8
20260508194504 20 177 6.4 17.7 0.00 0.00 0.00 25 1016.4
20260508193009 20 141 3.2 17.7 0.00 0.00 0.00 22 1016.7
20260508191514 21 103 1.6 16.1 0.00 0.00 0.00 21 1017.0
20260508190035 20 62 8.0 22.5 0.00 0.00 0.00 19 1016.9
20260508184530 20 39 3.2 14.5 0.00 0.00 0.00 22 1017.3
20260508183012 20 198 8.0 25.7 0.00 0.00 0.00 20 1017.3
20260508181510 20 334 11.3 22.5 0.00 0.00 0.00 22 1017.4
20260508180014 20 76 4.8 19.3 0.00 0.00 0.00 22 1017.5
20260508174520 20 334 4.8 25.7 0.00 0.00 0.00 24 1017.6
20260508173022 19 342 14.5 25.7 0.00 0.00 0.00 24 1017.9
20260508171508 18 315 9.7 16.1 0.00 0.00 0.00 34 1018.0
20260508170011 18 82 3.2 9.7 0.00 0.00 0.00 37 1018.3
20260508164523 17 5 3.2 8.0 0.00 0.00 0.00 36 1018.6
20260508163027 17 65 3.2 14.5 0.00 0.00 0.00 38 1019.1
20260508161523 16 78 1.6 14.5 0.00 0.00 0.00 38 1019.3
20260508160009 16 88 4.8 12.9 0.00 0.00 0.00 40 1019.5
20260508154515 16 78 1.6 12.9 0.00 0.00 0.00 38 1019.6
20260508153029 16 57 0.0 8.0 0.00 0.00 0.00 40 1019.9
20260508151523 15 71 3.2 9.7 0.00 0.00 0.00 40 1020.0
20260508150030 15 107 1.6 9.7 0.00 0.00 0.00 40 1020.1
20260508144518 14 355 1.6 9.7 0.00 0.00 0.00 46 1020.1
20260508143016 13 325 1.6 8.0 0.00 0.00 0.00 38 1020.3
20260508141522 13 92 0.0 12.9 0.00 0.00 0.00 43 1020.5
20260508140018 12 246 0.0 6.4 0.00 0.00 0.00 44 1020.6
20260508134509 12 351 0.0 4.8 0.00 0.00 0.00 45 1020.7
20260508133013 11 355 0.0 6.4 0.00 0.00 0.00 48 1020.7
20260508131516 10 346 0.0 6.4 0.00 0.00 0.00 51 1020.7
20260508130033 9 26 0.0 0.0 0.00 0.00 0.00 55 1020.7
20260508124508 8 26 0.0 4.8 0.00 0.00 0.00 59 1020.6
20260508123015 7 28 0.0 0.0 0.00 0.00 0.00 65 1020.6
20260508121516 6 28 0.0 0.0 0.00 0.00 0.00 65 1020.5
20260508120021 4 26 0.0 0.0 0.00 0.03 0.00 65 1020.2
20260508114523 3 76 0.0 0.0 0.00 0.08 0.00 65 1020.2
20260508113008 2 76 0.0 0.0 0.00 0.15 0.00 63 1019.9
20260508111514 2 76 0.0 0.0 0.00 0.25 0.00 63 1019.6
20260508110022 2 56 0.0 0.0 0.00 0.33 0.00 62 1019.5
20260508104529 3 56 0.0 0.0 0.00 0.43 0.00 62 1019.3
20260508103033 3 56 0.0 0.0 0.00 0.48 0.00 62 1019.1
20260508101528 3 56 0.0 0.0 0.00 0.53 0.00 62 1018.9
20260508100017 3 56 0.0 0.0 0.00 0.53 0.00 62 1018.8
20260508094524 3 56 0.0 0.0 0.00 0.53 0.00 62 1018.7
20260508093034 3 56 0.0 0.0 0.00 0.53 0.00 62 1018.6
20260508091532 3 56 0.0 0.0 0.00 0.53 0.00 62 1018.6
20260508090028 4 56 0.0 0.0 0.00 0.53 0.00 62 1018.5
20260508084517 4 56 0.0 0.0 0.00 0.53 0.00 62 1018.5
20260508083019 4 56 0.0 0.0 0.00 0.53 0.00 62 1018.4
20260508081524 4 56 0.0 1.6 0.00 0.53 0.00 62 1018.3
20260508080028 5 56 0.0 0.0 0.00 0.53 0.00 62 1018.2
20260508074528 5 56 0.0 0.0 0.00 0.53 0.00 62 1018.2
20260508073022 5 56 0.0 0.0 0.00 0.53 0.00 62 1018.3
20260508071524 5 56 0.0 0.0 0.00 0.53 0.00 62 1018.3
20260508070027 5 56 0.0 0.0 0.00 0.53 0.00 62 1018.4
20260508064533 5 56 0.0 0.0 0.00 0.53 0.00 61 1018.3
20260508063035 5 56 0.0 0.0 0.00 0.53 0.00 61 1018.3
20260508061522 6 56 0.0 4.8 0.00 0.56 0.00 62 1018.4
20260508060026 6 89 0.0 0.0 0.00 0.56 0.00 61 1018.5
20260508054526 6 89 0.0 0.0 0.00 0.56 0.00 61 1018.3
20260508053013 6 89 0.0 0.0 0.00 0.56 0.00 61 1018.3
20260508051514 6 89 0.0 0.0 0.00 0.56 0.00 61 1018.2
20260508050030 6 89 0.0 0.0 0.00 0.58 0.00 61 1018.3
20260508044504 6 89 0.0 0.0 0.00 0.66 0.00 61 1018.2
20260508043009 6 89 0.0 0.0 0.00 0.71 0.00 62 1018.0
20260508041515 6 89 0.0 0.0 0.00 0.74 0.00 62 1017.9
20260508040026 7 89 0.0 0.0 0.00 0.79 0.00 62 1017.9
20260508034524 7 89 0.0 0.0 0.00 0.89 0.79 62 1017.9
20260508033024 7 89 0.0 0.0 0.00 0.91 0.79 61 1018.1
20260508031511 7 89 0.0 0.0 0.00 0.91 0.79 62 1018.0
20260508030017 7 89 0.0 0.0 0.00 0.91 0.79 62 1018.0
20260508024520 7 89 0.0 0.0 0.00 0.91 0.79 62 1018.0
20260508023024 8 89 0.0 0.0 0.00 0.91 0.79 62 1017.9
20260508021526 8 89 0.0 0.0 0.00 0.91 0.79 61 1017.6
20260508020017 8 89 0.0 0.0 0.00 0.91 0.79 61 1017.3
20260508014522 8 89 0.0 0.0 0.00 0.97 0.79 61 1017.2
20260508013023 9 89 0.0 0.0 0.00 0.99 0.79 59 1016.7
20260508011525 10 89 0.0 0.0 0.00 0.99 0.79 58 1016.7
20260508010033 10 89 0.0 0.0 0.00 1.02 0.79 57 1016.5
20260508004513 11 89 0.0 0.0 0.00 1.04 0.79 55 1016.4